Home > Weather > Astrakhan > Past weeks

Flag for Russia Weather for the Past 2 Weeks in Astrakhan, Russia

Now
30 °F

Clear.


Feels Like: 24 °F
Forecast: 35 / 42 °F
Wind: 6 mph from East

Location: Astrakhan

Current Time: Feb 14, 2016 at 10:41:43 PM

Latest Report: Feb 14, 2016 at 10:00 PM


Visibility: 10 mi

Pressure: 30.18 "Hg

Humidity: 75%

Dew point: 23 °F

Location of AstrakhanLocation

Historic Weather in Astrakhan — Graph

°F

Astrakhan Temperature Yesterday

Maximum temperature yesterday: 45 °F (at 1:30 PM)
Minimum temperature yesterday: 27 °F (at 2:30 AM)
Average temperature yesterday: 34 °F

High & Low Weather Summary for the Past Weeks

 TemperatureHumidityPressure
High54 °F (Feb 4, 12:30 PM)100% (Feb 5, 3:00 AM)30.63 "Hg (Feb 5, 3:00 AM)
Low19 °F (Feb 9, 6:00 AM)37% (Feb 14, 1:30 PM)29.80 "Hg (Feb 6, 4:00 AM)
Average35 °F77%30.23 "Hg
* Reported Jan 30 9:00 PM — Feb 14 9:30 PM, Astrakhan, Weather by CustomWeather, © 2016

Note: Actual official high and low records may vary slightly from our data, if they occured in-between our weather recording intervals... More about our weather records

Advertising

Astrakhan Weather History for the Previous 24 Hours

 ConditionsComfort  
Time TempWeatherWind HumidityBarometerVisibility
9:30 PM
Sun, Feb 14
30 °FClear.6 mph75%30.18 "Hg10 mi
9:00 PM30 °FClear.6 mph75%30.18 "Hg10 mi
8:30 PM32 °FClear.8 mph69%30.18 "Hg10 mi
8:00 PM32 °FClear.8 mph69%30.18 "Hg10 mi
7:30 PM34 °FClear.8 mph60%30.18 "Hg10 mi
7:00 PM34 °FClear.8 mph60%30.18 "Hg10 mi
6:30 PM34 °FClear.8 mph60%30.18 "Hg10 mi
6:00 PM36 °FSunny.10 mph60%30.18 "Hg10 mi
5:30 PM36 °FSunny.13 mph60%30.15 "Hg10 mi
5:00 PM37 °FSunny.13 mph60%30.15 "Hg10 mi
4:30 PM41 °FSunny.13 mph53%30.15 "Hg10 mi
4:00 PM43 °FSunny.13 mph53%30.15 "Hg10 mi
3:30 PM43 °FSunny.15 mph53%30.15 "Hg10 mi
3:00 PM45 °FSunny.17 mph49%30.12 "Hg10 mi
2:30 PM45 °FSunny.20 mph46%30.12 "Hg10 mi
2:00 PM46 °FSunny.17 mph37%30.12 "Hg10 mi
1:30 PM46 °FSunny.17 mph37%30.12 "Hg10 mi
1:00 PM46 °FSunny.20 mph40%30.12 "Hg10 mi
12:30 PM46 °FSunny.17 mph53%30.15 "Hg10 mi
12:00 PM45 °FSunny.15 mph57%30.15 "Hg10 mi
11:30 AM45 °FSunny.15 mph53%30.15 "Hg10 mi
10:30 AM41 °FSunny.13 mph70%30.15 "Hg10 mi
10:00 AM37 °FScattered clouds.13 mph70%30.18 "HgN/A
9:30 AM36 °FScattered clouds.10 mph70%30.18 "HgN/A
9:00 AM34 °FScattered clouds.10 mph75%30.18 "HgN/A
8:30 AM32 °FPartly sunny.10 mph75%30.18 "HgN/A
8:00 AM30 °FSunny.10 mph75%30.18 "Hg10 mi
7:30 AM28 °FClear.8 mph80%30.18 "Hg10 mi
7:00 AM27 °FClear.10 mph86%30.18 "Hg10 mi
6:30 AM28 °FClear.10 mph80%30.18 "Hg10 mi
6:00 AM28 °FClear.10 mph80%30.18 "Hg10 mi
5:30 AM28 °FClear.10 mph80%30.18 "Hg10 mi
5:00 AM28 °FClear.10 mph86%30.18 "Hg10 mi
4:30 AM28 °FClear.10 mph86%30.18 "Hg10 mi
4:00 AM28 °FClear.10 mph86%30.18 "Hg10 mi
3:30 AM28 °FClear.8 mph86%30.18 "Hg10 mi
3:00 AM28 °FClear.8 mph86%30.18 "Hg10 mi
2:30 AM28 °FClear.6 mph86%30.18 "Hg10 mi
2:00 AM28 °FClear.8 mph86%30.21 "Hg10 mi
1:30 AM28 °FClear.6 mph86%30.21 "Hg10 mi
12:30 AM28 °FClear.8 mph86%30.21 "Hg10 mi
12:00 AM30 °FClear.10 mph86%30.21 "Hg10 mi
11:30 PM
Sat, Feb 13
30 °FClear.10 mph86%30.21 "Hg10 mi
11:00 PM30 °FClear.13 mph86%30.21 "Hg10 mi
10:30 PM30 °FClear.13 mph86%30.21 "Hg10 mi
10:00 PM30 °FClear.10 mph86%30.21 "Hg10 mi
Weather by CustomWeather, © 2016

See weather overviewHow to use our weather pages